• In Romania
  • List of Countries
  • For 7 days
  • Water Temperature
  • Satellite Maps
  • Weather Map
  • Weather Widgets
  • user-avatar
    Login

    Hourly Weather Nakhchivan

    Today, 17 October, Wednesday

    Time Temperature Precipitation Wind Pressure Humidity
    00:00 +17°C° 0 mm 2 mps 693 mmHg 57%
    01:00 +18°C° 0 mm 1 mps 693 mmHg 59%
    02:00 +16°C° 0 mm 1 mps 692 mmHg 60%
    03:00 +16°C° 0 mm 1 mps 692 mmHg 64%
    04:00 +15°C° 0 mm 1 mps 692 mmHg 65%
    05:00 +15°C° 0 mm 1 mps 692 mmHg 66%
    06:00 +15°C° 0 mm 1 mps 692 mmHg 67%
    07:00 +16°C° 0 mm 1 mps 693 mmHg 61%
    08:00 +18°C° 0 mm 1 mps 693 mmHg 55%
    09:00 +20°C° 0 mm 1 mps 693 mmHg 49%
    10:00 +21°C° 0 mm 1 mps 693 mmHg 46%
    11:00 +22°C° 0 mm 1 mps 692 mmHg 42%
    12:00 +23°C° 0 mm 2 mps 692 mmHg 39%
    13:00 +23°C° 0 mm 2 mps 692 mmHg 37%
    14:00 +23°C° 0 mm 2 mps 692 mmHg 36%
    15:00 +24°C° 0 mm 2 mps 691 mmHg 35%
    16:00 +23°C° 0 mm 2 mps 691 mmHg 38%
    17:00 +21°C° 0 mm 2 mps 691 mmHg 41%
    18:00 +20°C° 0 mm 2 mps 691 mmHg 44%
    19:00 +20°C° 0 mm 1 mps 691 mmHg 47%
    20:00 +20°C° 0 mm 1 mps 691 mmHg 50%
    21:00 +19°C° 0 mm 1 mps 691 mmHg 53%
    22:00 +18°C° 0 mm 1 mps 691 mmHg 56%
    23:00 +18°C° 0 mm 1 mps 691 mmHg 58%

    Tomorrow, 18 October, Thursday

    Time Temperature Precipitation Wind Pressure Humidity
    00:00 +16°C° 0 mm 1 mps 691 mmHg 60%
    01:00 +16°C° 0 mm 1 mps 691 mmHg 61%
    02:00 +16°C° 0 mm 1 mps 691 mmHg 63%
    03:00 +15°C° 0 mm 1 mps 691 mmHg 64%
    04:00 +15°C° 0 mm 1 mps 690 mmHg 65%
    05:00 +13°C° 0 mm 0 mps 690 mmHg 66%
    06:00 +13°C° 0 mm 0 mps 690 mmHg 67%
    07:00 +15°C° 0 mm 0 mps 690 mmHg 60%
    08:00 +16°C° 0 mm 0 mps 691 mmHg 53%
    09:00 +18°C° 0 mm 0 mps 691 mmHg 47%
    10:00 +21°C° 0 mm 1 mps 691 mmHg 43%
    11:00 +22°C° 0 mm 1 mps 691 mmHg 39%
    12:00 +23°C° 0 mm 1 mps 691 mmHg 35%
    13:00 +24°C° 0 mm 1 mps 690 mmHg 34%
    14:00 +24°C° 0 mm 2 mps 690 mmHg 32%
    15:00 +24°C° 0 mm 2 mps 690 mmHg 31%
    16:00 +23°C° 0 mm 1 mps 690 mmHg 34%
    17:00 +22°C° 0 mm 1 mps 690 mmHg 37%
    18:00 +21°C° 0 mm 1 mps 690 mmHg 40%
    19:00 +20°C° 0 mm 1 mps 690 mmHg 42%
    20:00 +20°C° 0 mm 1 mps 690 mmHg 44%
    21:00 +19°C° 0 mm 1 mps 690 mmHg 47%
    22:00 +19°C° 0 mm 1 mps 690 mmHg 48%
    23:00 +18°C° 0 mm 1 mps 690 mmHg 50%

    Day after tomorrow, 19 October, Friday

    Time Temperature Precipitation Wind Pressure Humidity
    00:00 +18°C° 0 mm 1 mps 690 mmHg 52%
    01:00 +16°C° 0 mm 1 mps 690 mmHg 53%
    02:00 +16°C° 0 mm 1 mps 690 mmHg 55%
    03:00 +15°C° 0 mm 1 mps 690 mmHg 56%
    04:00 +15°C° 0 mm 1 mps 690 mmHg 57%
    05:00 +14°C° 0 mm 1 mps 690 mmHg 58%
    06:00 +14°C° 0 mm 1 mps 689 mmHg 59%
    07:00 +16°C° 0 mm 1 mps 690 mmHg 52%
    08:00 +19°C° 0 mm 1 mps 690 mmHg 45%
    09:00 +19°C° 0 mm 0 mps 691 mmHg 38%
    10:00 +22°C° 0 mm 1 mps 691 mmHg 35%
    11:00 +23°C° 0 mm 1 mps 691 mmHg 31%
    12:00 +24°C° 0 mm 1 mps 690 mmHg 28%
    13:00 +24°C° 0 mm 1 mps 690 mmHg 27%
    14:00 +25°C° 0 mm 2 mps 690 mmHg 26%
    15:00 +25°C° 0 mm 2 mps 689 mmHg 25%
    16:00 +24°C° 0 mm 1 mps 689 mmHg 28%
    17:00 +23°C° 0 mm 1 mps 689 mmHg 31%
    18:00 +21°C° 0 mm 1 mps 689 mmHg 33%
    19:00 +21°C° 0 mm 1 mps 689 mmHg 35%
    20:00 +20°C° 0 mm 1 mps 689 mmHg 37%
    21:00 +20°C° 0 mm 1 mps 690 mmHg 39%
    22:00 +19°C° 0 mm 1 mps 689 mmHg 40%
    23:00 +19°C° 0 mm 1 mps 689 mmHg 41%

    20 October, Saturday

    Time Temperature Precipitation Wind Pressure Humidity
    00:00 +18°C° 0 mm 1 mps 689 mmHg 42%
    01:00 +18°C° 0 mm 1 mps 689 mmHg 42%
    02:00 +16°C° 0 mm 1 mps 689 mmHg 43%
    03:00 +16°C° 0 mm 1 mps 689 mmHg 43%
    04:00 +15°C° 0 mm 1 mps 688 mmHg 44%
    05:00 +14°C° 0 mm 0 mps 688 mmHg 45%
    06:00 +14°C° 0 mm 0 mps 688 mmHg 46%
    07:00 +16°C° 0 mm 0 mps 689 mmHg 41%
    08:00 +18°C° 0 mm 0 mps 689 mmHg 36%
    09:00 +20°C° 0 mm 0 mps 690 mmHg 30%
    10:00 +23°C° 0 mm 1 mps 689 mmHg 29%
    11:00 +24°C° 0 mm 1 mps 689 mmHg 27%
    12:00 +25°C° 0 mm 1 mps 689 mmHg 25%
    13:00 +25°C° 0 mm 2 mps 688 mmHg 24%
    14:00 +26°C° 0 mm 2 mps 688 mmHg 24%
    15:00 +26°C° 0 mm 2 mps 688 mmHg 23%
    16:00 +25°C° 0 mm 1 mps 688 mmHg 26%
    17:00 +23°C° 0 mm 1 mps 688 mmHg 29%
    18:00 +22°C° 0 mm 1 mps 688 mmHg 31%
    19:00 +22°C° 0 mm 1 mps 688 mmHg 32%
    20:00 +21°C° 0 mm 1 mps 688 mmHg 33%
    21:00 +20°C° 0 mm 1 mps 688 mmHg 34%
    22:00 +20°C° 0 mm 1 mps 688 mmHg 34%
    23:00 +20°C° 0 mm 1 mps 687 mmHg 35%

    21 October, Sunday

    Time Temperature Precipitation Wind Pressure Humidity
    00:00 +19°C° 0 mm 1 mps 687 mmHg 35%
    01:00 +19°C° 0 mm 1 mps 687 mmHg 36%
    02:00 +19°C° 0 mm 1 mps 687 mmHg 37%
    03:00 +19°C° 0 mm 1 mps 687 mmHg 38%
    04:00 +18°C° 0 mm 1 mps 687 mmHg 40%
    05:00 +18°C° 0 mm 1 mps 687 mmHg 42%
    06:00 +16°C° 0 mm 1 mps 687 mmHg 44%
    07:00 +19°C° 0 mm 1 mps 687 mmHg 40%
    08:00 +21°C° 0 mm 1 mps 688 mmHg 37%
    09:00 +22°C° 0 mm 1 mps 688 mmHg 33%
    10:00 +23°C° 0 mm 1 mps 688 mmHg 34%
    11:00 +23°C° 0 mm 2 mps 687 mmHg 34%
    12:00 +24°C° 0 mm 2 mps 687 mmHg 35%
    13:00 +24°C° 0.1 mm 2 mps 687 mmHg 36%
    14:00 +24°C° 0.1 mm 2 mps 687 mmHg 37%
    15:00 +24°C° 0.1 mm 2 mps 686 mmHg 38%
    16:00 +23°C° 0.1 mm 2 mps 686 mmHg 41%
    17:00 +22°C° 0.1 mm 1 mps 686 mmHg 45%
    18:00 +21°C° 0.1 mm 1 mps 686 mmHg 48%
    19:00 +21°C° 0.1 mm 1 mps 686 mmHg 51%
    20:00 +20°C° 0.1 mm 1 mps 686 mmHg 53%
    21:00 +20°C° 0.1 mm 1 mps 686 mmHg 55%
    22:00 +20°C° 0 mm 1 mps 686 mmHg 56%
    23:00 +19°C° 0 mm 1 mps 686 mmHg 58%

    22 October, Monday

    Time Temperature Precipitation Wind Pressure Humidity
    00:00 +19°C° 0 mm 1 mps 686 mmHg 59%
    01:00 +18°C° 0 mm 1 mps 686 mmHg 60%
    02:00 +18°C° 0 mm 1 mps 686 mmHg 61%
    03:00 +18°C° 0 mm 1 mps 686 mmHg 62%
    04:00 +16°C° 0 mm 1 mps 686 mmHg 63%
    05:00 +16°C° 0 mm 1 mps 686 mmHg 64%
    06:00 +15°C° 0 mm 1 mps 687 mmHg 65%
    07:00 +18°C° 0 mm 1 mps 687 mmHg 60%
    08:00 +19°C° 0 mm 1 mps 688 mmHg 54%
    09:00 +21°C° 0 mm 1 mps 688 mmHg 49%
    10:00 +22°C° 0 mm 1 mps 688 mmHg 46%
    11:00 +23°C° 0 mm 1 mps 688 mmHg 42%
    12:00 +24°C° 0 mm 2 mps 688 mmHg 39%
    13:00 +24°C° 0 mm 2 mps 688 mmHg 37%
    14:00 +24°C° 0 mm 2 mps 688 mmHg 35%
    15:00 +25°C° 0 mm 2 mps 688 mmHg 34%
    16:00 +24°C° 0 mm 2 mps 688 mmHg 37%
    17:00 +23°C° 0 mm 2 mps 688 mmHg 39%
    18:00 +22°C° 0 mm 1 mps 689 mmHg 42%
    19:00 +21°C° 0 mm 1 mps 689 mmHg 44%
    20:00 +21°C° 0 mm 1 mps 689 mmHg 45%
    21:00 +20°C° 0 mm 1 mps 689 mmHg 47%
    22:00 +20°C° 0 mm 1 mps 689 mmHg 48%
    23:00 +19°C° 0 mm 1 mps 689 mmHg 48%
    Show more